This demonstration page uses our WeatherBlox Daily Observations layout. Learn more.

Left ArrowRight Arrow

39.08367, -84.50855

Hourly Observations for May 21, 2016

Temp ( °F °C ) Dew Point ( °F °C ) Humidity (%) Winds ( mph kmh ) Pressure ( in mb ) Visibility ( mi km ) Precip ( " mm )
12:53 am 00:53 Cloudy with Light Rain 60 15.6 59 15 96 96 Calm 29.98 1015 6 10 0.03 0.76
1:31 am 01:31 Cloudy with Mist and Fog 59 15 59 15 100 100 NNE 3 6 29.94 1014 4 6 0.00 0.03
1:53 am 01:53 Cloudy with Mist and Fog 59 15 59 15 100 100 N 5 7 29.97 1015 4 6 0.00 0.03
2:00 am 02:00 Cloudy with Mist and Fog 59 15 59 15 100 100 NNE 3 6 29.94 1014 4 6 0.00 0.00
2:53 am 02:53 Cloudy with Light Rain 59 15 59 15 100 100 N 3 6 29.96 1014 4 6 0.00 0.03
3:17 am 03:17 Cloudy with Light Rain 59 15 59 15 100 100 NNE 3 6 29.94 1014 4 6 0.00 0.03
3:46 am 03:46 Cloudy 59 15 59 15 100 100 Calm 29.94 1014 8 13 0.00 0.00
3:53 am 03:53 Cloudy 59 15 59 15 100 100 N 3 6 29.95 1014 10 16 0.01 0.25
4:28 am 04:28 Cloudy 59 15 59 15 100 100 N 5 7 29.94 1014 10 16 0.00 0.00
4:53 am 04:53 Cloudy 59 15 59 15 100 100 Calm 29.95 1014 10 16 0.00 0.00
5:53 am 05:53 Cloudy 59 15 59 15 100 100 Calm 29.95 1014 8 13 0.00 0.00
6:06 am 06:06 Cloudy 59 15 59 15 100 100 Calm 29.94 1014 7 11 0.00 0.00
6:53 am 06:53 Cloudy 59 15 58 14.4 96 96 NNE 5 7 29.96 1015 10 16 0.00 0.00
7:43 am 07:43 Cloudy with Mist and Fog 58 14.4 58 14.4 100 100 NNE 6 9 29.94 1014 6 10 0.00 0.03
7:53 am 07:53 Cloudy with Mist and Fog 58 14.4 58 14.4 100 100 NNE 3 6 29.98 1015 6 10 0.00 0.03
8:53 am 08:53 Cloudy with Mist and Fog 59 15 57 13.9 93 93 NNW 7 11 30.00 1016 6 10 0.00 0.03
9:53 am 09:53 Cloudy 60 15.6 58 14.4 93 93 N 6 9 29.99 1016 7 11 0.00 0.03
10:53 am 10:53 Cloudy 60 15.6 58 14.4 93 93 NW 7 11 30.00 1016 8 13 0.00 0.03
11:53 am 11:53 Cloudy 61 16.1 57 13.9 87 87 NNW 10 17 30.01 1016 9 14 0.00 0.00
12:53 pm 12:53 Cloudy 63 17.2 57 13.9 81 81 N 10 17 30.00 1016 10 16 0.00 0.00
1:53 pm 13:53 Cloudy 62 16.7 55 12.8 78 78 N 15 24 30.00 1016 10 16 0.00 0.00
2:29 pm 14:29 Cloudy 63 17.2 55 12.8 76 76 N 14 22 29.97 1015 10 16 0.00 0.00
2:40 pm 14:40 Cloudy 63 17.2 55 12.8 76 76 N 14 22 29.97 1015 10 16 0.00 0.00
2:53 pm 14:53 Cloudy 63 17.2 55 12.8 76 76 N 10 17 30.00 1016 10 16 0.00 0.00
3:53 pm 15:53 Cloudy 65 18.3 55 12.8 70 70 NNW 18 30 30.00 1016 10 16 0.00 0.00
4:31 pm 16:31 Cloudy 63 17.2 54 12.2 73 73 NNE 13 20 30.00 1016 10 16 0.00 0.00
4:53 pm 16:53 Cloudy 63 17.2 53 11.7 70 70 N 17 28 30.01 1016 10 16 0.00 0.00
5:53 pm 17:53 Cloudy 62 16.7 52 11.1 70 70 NNE 6 9 30.02 1017 10 16 0.00 0.00
6:53 pm 18:53 Cloudy 63 17.2 53 11.7 70 70 NNW 6 9 30.01 1016 10 16 0.00 0.00
7:53 pm 19:53 Cloudy 63 17.2 54 12.2 73 73 NNW 6 9 30.01 1016 10 16 0.00 0.00
8:53 pm 20:53 Mostly Clear 58 14.4 55 12.8 90 90 Calm 30.02 1017 10 16 0.00 0.00
9:53 pm 21:53 Clear 54 12.2 54 12.2 100 100 Calm 30.02 1017 10 16 0.00 0.00
10:53 pm 22:53 Clear 52 11.1 52 11.1 100 100 Calm 30.04 1017 7 11 0.00 0.00
11:14 pm 23:14 Clear with Mist and Fog 52 11 52 11 100 100 Calm 30.03 1017 2 2 0.00 0.00
11:40 pm 23:40 Clear with Fog 51 10.6 51 10.6 100 100 Calm 30.03 1017 1 1 0.00 0.00
11:53 pm 23:53 Clear with Fog 51 10.6 51 10.6 100 100 Calm 30.04 1017 1 1 0.00 0.00

Powered by AerisWeather